Waarnemingen

Advertentie
Mijn weer
Leutkirch-Herlazhofen, Duitsland (10945): temperatuur & dauwpunt: 23.03.2017 01:00:00 - 29.03.2017 01:00:00 (CEST)Leutkirch-Herlazhofen, Duitsland (10945): temperatuur 5cm & temperatuur -5cm: 23.03.2017 01:00:00 - 29.03.2017 01:00:00 (CEST)Leutkirch-Herlazhofen, Duitsland (10945): temperatuur -20cm & temperatuur -100cm: 23.03.2017 01:00:00 - 29.03.2017 01:00:00 (CEST)Leutkirch-Herlazhofen, Duitsland (10945): windsnelheid & windstoten: 23.03.2017 01:00:00 - 29.03.2017 01:00:00 (CEST)Leutkirch-Herlazhofen, Duitsland (10945): windrichting: 23.03.2017 01:00:00 - 29.03.2017 01:00:00 (CEST)Leutkirch-Herlazhofen, Duitsland (10945): luchtdruk: 23.03.2017 01:00:00 - 29.03.2017 01:00:00 (CEST)Leutkirch-Herlazhofen, Duitsland (10945): zicht: 23.03.2017 01:00:00 - 29.03.2017 01:00:00 (CEST)Leutkirch-Herlazhofen, Duitsland (10945): Zonneschijnduur: 23.03.2017 01:00:00 - 29.03.2017 01:00:00 (CEST)Leutkirch-Herlazhofen, Duitsland (10945): neerslag: 23.03.2017 01:00:00 - 29.03.2017 01:00:00 (CEST)
Datum & Tijd tt [°C] td [°C] tt 5cm [°C] tt -5cm [°C] tt -20cm [°C] tt -100cm [°C] ff [km/u] ff [kn] fx [km/u] fx [kn] dd ppp [hPa] vv [km] sd [min] rr [mm]
29.03.2017 01:00:00 6,3 3,5 4,7 6,4 9,1 6,4 2 1 11 6 Z 1027,8 26 0 0,0
29.03.2017 00:00:00 4,8 3,1 2,1 7,0 9,4 6,4 4 2 8 5 ZZO 1027,8 20 0 0,0
28.03.2017 23:00:00 7,2 3,9 4,0 7,9 9,6 6,4 7 4 11 6 ZZO 1026,6 26 0 0,0
28.03.2017 22:00:00 8,2 4,4 5,0 8,9 9,8 6,4 8 4 10 5 ZZO 1026,1 27 0 0,0
28.03.2017 21:00:00 8,1 4,7 3,2 10,3 9,9 6,4 5 3 13 7 ZZO 1025,9 27 0 0,0
28.03.2017 20:00:00 8,2 5,0 4,7 12,4 9,8 6,4 9 5 10 6 ZW 1025,1 33 27 0,0
28.03.2017 19:00:00 14,6 5,6 12,8 14,3 9,5 6,4 9 5 15 8 WZW 1022,7 37 60 0,0
28.03.2017 18:00:00 16,6 5,0 18,2 15,8 9,0 6,4 9 5 16 9 WNW 1021,9 25 56 0,0
28.03.2017 17:00:00 17,1 5,5 20,7 16,8 8,4 6,4 6 3 15 8 WNW 1021,7 23 60 0,0
28.03.2017 16:00:00 17,2 4,2 20,1 16,6 7,7 6,4 4 2 19 11 ZW 1021,9 34 60 0,0
28.03.2017 15:00:00 16,8 5,3 19,9 15,9 7,1 6,4 5 3 19 10 ZZW 1022,5 23 60 0,0
28.03.2017 14:00:00 15,4 4,6 19,2 14,6 6,4 6,4 9 5 18 10 ZW 1023,2 12 60 0,0
28.03.2017 13:00:00 14,8 6,9 18,8 12,7 5,9 6,4 10 5 21 11 W 1023,6 16 60 0,0
28.03.2017 12:00:00 13,0 5,6 16,0 10,4 5,6 6,4 15 8 23 12 ZW 1024,4 16 60 0,0
28.03.2017 11:00:00 12,0 5,2 14,7 7,8 5,4 6,4 13 7 19 10 WZW 1024,7 13 60 0,0
28.03.2017 10:00:00 10,6 4,0 11,9 4,5 5,5 6,4 10 6 14 8 ZZW 1024,7 18 60 0,0
28.03.2017 09:00:00 7,0 4,1 6,6 1,9 5,7 6,4 9 5 10 5 ZZO 1025,3 14 60 0,0
28.03.2017 08:00:00 1,7 0,4 -0,2 1,9 5,9 6,4 6 3 12 6 ZO 1026,7 15 22 0,0
28.03.2017 07:00:00 0,8 0,3 -3,5 2,0 6,2 6,4 6 3 10 5 ZZO 1026,6 9 0 0,0
28.03.2017 06:00:00 0,3 0,1 -3,5 2,2 6,4 6,4 4 2 10 5 ZZO 1026,5 11 0 0,0
28.03.2017 05:00:00 -0,1 -0,7 -3,5 2,5 6,7 6,4 3 2 6 3 ZZW 1026,3 11 0 0,0
28.03.2017 04:00:00 0,0 -0,6 -3,8 2,8 7,0 6,4 5 3 6 3 ZZW 1026,1 15 0 0,0
28.03.2017 03:00:00 0,4 -0,4 -3,6 3,1 7,3 6,4 2 1 6 3 Z 1026,1 19 0 0,0
28.03.2017 02:00:00 0,7 -0,2 -3,4 3,5 7,7 6,4 4 2 6 4 ZO 1025,8 22 0 0,0
28.03.2017 01:00:00 0,5 -0,2 -3,2 4,2 8,0 6,4 0 0 4 2 N 1026,0 18 0 0,0
28.03.2017 00:00:00 1,2 0,3 -2,3 5,0 8,3 6,4 3 2 7 4 ZO 1025,8 16 0 0,0
27.03.2017 23:00:00 3,0 1,7 -1,8 6,1 8,6 6,4 3 2 4 2 OZO 1024,9 22 0 0,0
27.03.2017 22:00:00 3,3 2,1 -0,9 7,3 8,8 6,4 0 0 5 3 N 1024,8 14 0 0,0
27.03.2017 21:00:00 5,6 3,1 0,5 8,9 8,8 6,4 3 2 5 3 ZO 1023,9 28 0 0,0
27.03.2017 20:00:00 8,6 3,4 3,8 10,8 8,7 6,4 2 1 9 5 O 1022,5 30 40 0,0
27.03.2017 19:00:00 13,8 3,0 12,3 12,4 8,4 6,4 6 3 13 7 NNO 1020,7 41 60 0,0
27.03.2017 18:00:00 14,6 2,5 15,7 13,5 8,0 6,4 8 4 14 8 NNO 1020,3 39 60 0,0
27.03.2017 17:00:00 14,6 2,5 16,6 14,1 7,4 6,4 10 6 18 10 NO 1020,4 27 60 0,0
27.03.2017 16:00:00 14,3 2,4 17,6 14,0 6,8 6,4 9 5 19 11 NO 1020,7 24 60 0,0
27.03.2017 15:00:00 13,5 3,2 17,0 13,5 6,2 6,4 11 6 21 11 NO 1021,3 26 60 0,0
27.03.2017 14:00:00 12,7 3,6 16,0 12,6 5,6 6,4 11 6 20 11 NO 1021,9 29 60 0,0
27.03.2017 13:00:00 11,6 2,6 16,2 10,8 5,1 6,4 9 5 18 10 NNO 1022,0 24 60 0,0
27.03.2017 12:00:00 10,6 2,6 13,0 8,5 4,9 6,4 8 5 18 10 ONO 1022,2 24 60 0,0
27.03.2017 11:00:00 8,3 1,8 11,7 5,3 4,8 6,4 7 4 12 7 NNO 1022,9 22 60 0,0
27.03.2017 10:00:00 5,5 0,2 8,8 1,8 5,0 6,4 6 3 12 6 NNW 1023,6 22 60 0,0
27.03.2017 09:00:00 3,0 -2,1 4,5 1,4 5,2 6,4 3 2 13 7 NW 1024,1 43 60 0,0
27.03.2017 08:00:00 0,8 -3,4 -0,1 1,5 5,3 6,4 8 5 18 10 NNO 1024,4 45 24 0,0
27.03.2017 07:00:00 0,2 -3,8 -1,9 1,6 5,5 6,4 13 7 21 12 NNO 1024,2 54 0 0,0
27.03.2017 06:00:00 0,8 -4,0 -1,2 1,8 5,8 6,4 13 7 19 11 NO 1024,2 70 0 0,0
27.03.2017 05:00:00 0,8 -4,4 -2,8 2,0 6,0 6,4 6 3 16 8 N 1024,3 70 0 0,0
27.03.2017 04:00:00 1,3 -4,1 -2,4 2,2 6,2 6,4 8 4 16 9 N 1024,2 70 0 0,0
27.03.2017 03:00:00 2,1 -4,3 -2,3 2,4 6,5 6,4 6 4 13 7 N 1024,5 70 0 0,0
27.03.2017 02:00:00 0,2 -3,8 -2,3 2,6 6,8 6,4 6 3 21 11 NW 1025,5 59 0 0,0
27.03.2017 01:00:00 3,3 -4,0 0,4 2,9 7,1 6,4 11 6 16 9 NO 1025,0 70 0 0,0
27.03.2017 00:00:00 2,8 -3,1 -1,8 3,5 7,5 6,4 5 3 10 5 NNW 1025,5 70 0 0,0
26.03.2017 23:00:00 4,0 -2,0 0,5 4,3 7,7 6,4 7 4 19 10 O 1024,9 70 0 0,0
26.03.2017 22:00:00 2,6 -1,2 -2,1 5,4 8,0 6,4 3 2 11 6 NO 1025,0 44 0 0,0
26.03.2017 21:00:00 5,1 0,1 0,8 6,8 8,1 6,4 8 5 13 7 NO 1023,8 41 0 0,0
26.03.2017 20:00:00 7,2 0,8 3,0 8,4 8,1 6,4 8 4 16 9 ONO 1022,7 37 7 0,0
26.03.2017 19:00:00 9,5 2,2 8,3 9,8 8,0 6,4 9 5 19 10 NO 1021,4 33 0 0,0
26.03.2017 18:00:00 10,1 2,7 9,9 10,9 7,8 6,4 9 5 17 9 NO 1021,0 21 0 0,0
26.03.2017 17:00:00 9,9 2,8 9,6 12,2 7,3 6,4 13 7 20 11 NO 1021,1 17 13 0,0
26.03.2017 16:00:00 10,8 3,0 14,7 12,9 6,8 6,4 4 2 14 7 ZZO 1020,5 16 35 0,0
26.03.2017 15:00:00 9,3 3,1 12,2 12,8 6,3 6,4 6 3 15 8 Z 1021,4 13 39 0,0
26.03.2017 14:00:00 8,6 3,0 11,5 10,4 6,0 6,4 4 2 9 5 Z 1021,9 15 4 0,0
26.03.2017 13:00:00 7,9 3,2 10,8 8,9 5,7 6,4 5 3 19 10 ZZW 1022,2 15 3 0,0
26.03.2017 12:00:00 6,8 2,9 8,4 7,3 5,5 6,4 11 6 21 12 WZW 1022,2 15 0 0,0
26.03.2017 11:00:00 6,1 2,3 8,1 5,9 5,4 6,4 5 3 10 5 W 1022,0 16 6 0,0
26.03.2017 10:00:00 5,0 1,0 6,5 3,7 5,5 6,4 1 1 13 7 O 1022,0 14 11 0,0
26.03.2017 09:00:00 2,4 0,2 2,6 2,2 5,7 6,4 6 3 10 6 N 1022,4 10 4 0,0
26.03.2017 08:00:00 1,4 -0,4 -0,8 2,1 5,9 6,4 3 2 18 10 OZO 1021,8 11 2 0,0
26.03.2017 07:00:00 1,3 -0,5 -0,8 2,2 6,1 6,4 10 5 15 8 NNO 1021,2 11 0 0,0
26.03.2017 06:00:00 2,4 0,1 -1,1 2,4 6,3 6,4 8 4 13 7 N 1020,0 15 0 0,0
26.03.2017 05:00:00 2,8 0,4 -0,1 3,0 6,6 6,3 5 3 16 9 NNW 1019,5 16 0 0,0
26.03.2017 04:00:00 3,7 0,2 0,7 3,4 6,8 6,3 6 4 21 11 NNW 1019,2 21 0 0,0
26.03.2017 03:00:00 4,7 0,0 2,8 3,8 7,0 6,3 14 8 28 15 NO 1018,9 28 0 0,0
26.03.2017 02:00:00 6,6 -0,3 4,4 4,0 7,2 6,3 18 10 34 18 O 1018,5 42 0 0,0
26.03.2017 01:00:00 5,5 0,1 3,4 4,4 7,5 6,3 15 8 26 14 NO 1019,7 27 0 0,0
26.03.2017 00:00:00 6,1 0,4 3,4 5,0 7,7 6,3 11 6 29 15 NO 1019,4 33 0 0,0
25.03.2017 23:00:00 7,5 0,7 5,6 5,5 7,9 6,3 23 12 37 20 ONO 1018,9 32 0 0,0
25.03.2017 22:00:00 7,4 1,3 5,4 6,1 8,1 6,3 18 10 32 17 ONO 1019,3 27 0 0,0
25.03.2017 21:00:00 7,8 1,6 5,5 6,9 8,2 6,3 19 10 34 18 ONO 1019,2 23 0 0,0
25.03.2017 20:00:00 9,4 2,4 7,2 8,2 8,2 6,3 22 12 32 17 NO 1018,6 24 29 0,0
25.03.2017 19:00:00 10,8 4,2 9,4 9,5 8,0 6,3 22 12 36 20 ONO 1018,4 16 60 0,0
25.03.2017 18:00:00 10,8 4,8 11,1 10,4 7,8 6,3 24 13 40 22 ONO 1018,7 18 60 0,0
25.03.2017 17:00:00 10,0 5,0 11,4 10,7 7,5 6,3 22 12 39 21 O 1019,7 14 60 0,0
25.03.2017 16:00:00 9,1 4,7 11,0 10,7 7,2 6,3 28 15 45 24 O 1020,9 13 60 0,0
25.03.2017 15:00:00 9,2 5,1 11,9 9,7 7,0 6,3 25 13 41 22 O 1021,6 9 45 0,0
25.03.2017 14:00:00 7,7 4,8 9,6 8,2 6,9 6,3 23 12 36 19 ONO 1022,9 10 0 0,0
25.03.2017 13:00:00 6,6 4,7 7,6 7,2 6,9 6,3 16 9 35 19 ONO 1023,9 8 0 0,0
25.03.2017 12:00:00 6,0 4,2 6,8 6,7 6,9 6,3 17 9 31 17 ONO 1024,5 9 0 0,0
25.03.2017 11:00:00 5,4 3,9 5,9 6,2 6,9 6,2 15 8 29 16 ONO 1025,0 8 0 0,0
25.03.2017 10:00:00 4,9 3,7 5,1 5,8 7,0 6,2 18 10 29 15 NO 1025,2 7 0 0,0
25.03.2017 09:00:00 4,7 3,7 4,7 5,6 7,1 6,2 14 8 30 16 NO 1025,1 7 0 0,0
25.03.2017 08:00:00 4,6 3,5 4,4 5,5 7,2 6,2 18 10 35 19 ONO 1025,3 8 0 0,0
25.03.2017 07:00:00 4,8 3,6 4,4 5,6 7,3 6,2 19 10 39 21 O 1025,3 6 0 0,0
25.03.2017 06:00:00 5,0 3,8 4,6 5,7 7,4 6,2 19 10 39 21 ONO 1025,3 6 0 0,0
25.03.2017 05:00:00 5,0 3,8 4,7 6,0 7,6 6,2 19 10 33 18 ONO 1025,7 6 0 0,0
25.03.2017 04:00:00 5,2 3,8 4,8 6,2 7,7 6,2 20 11 32 17 ONO 1026,1 8 0 0,0
25.03.2017 03:00:00 5,5 4,0 5,1 6,4 7,8 6,2 19 10 27 15 ONO 1026,4 8 0 0,0
25.03.2017 02:00:00 6,0 4,4 5,6 6,6 7,9 6,2 11 6 31 17 O 1026,5 8 0 0,0
25.03.2017 01:00:00 6,1 4,4 5,7 6,7 8,0 6,2 17 9 31 17 ONO 1026,4 8 0 0,0
25.03.2017 00:00:00 6,1 4,3 5,7 6,9 8,2 6,2 17 9 34 18 ONO 1026,4 8 0 0,0
24.03.2017 23:00:00 6,3 4,7 5,9 7,1 8,3 6,2 16 9 35 19 ONO 1026,4 6 0 0,0
24.03.2017 22:00:00 6,4 5,0 6,0 7,4 8,4 6,2 18 10 37 20 ONO 1026,2 7 0 0,0
24.03.2017 21:00:00 6,9 5,1 6,5 7,7 8,6 6,2 20 11 38 20 ONO 1025,7 7 0 0,0
24.03.2017 20:00:00 6,9 5,0 6,5 8,1 8,7 6,1 18 10 40 22 ONO 1025,5 9 0 0,0
24.03.2017 19:00:00 7,1 5,2 6,8 8,7 8,7 6,1 19 11 37 20 NO 1024,9 11 0 0,0
24.03.2017 18:00:00 7,4 5,1 7,6 9,6 8,7 6,1 22 12 34 19 NO 1024,5 11 0 0,0
24.03.2017 17:00:00 7,4 5,5 8,0 10,2 8,6 6,1 22 12 34 19 NO 1024,4 8 0 0,0
24.03.2017 16:00:00 8,1 5,9 9,2 11,0 8,4 6,1 19 11 34 18 NO 1023,9 7 4 0,0
24.03.2017 15:00:00 8,8 6,4 10,3 11,2 8,1 6,1 16 8 34 18 NNO 1023,5 10 3 0,0
24.03.2017 14:00:00 7,8 5,5 9,2 11,5 7,8 6,1 18 10 36 20 NO 1023,6 12 17 0,0
24.03.2017 13:00:00 8,8 6,7 12,0 11,0 7,6 6,1 17 9 29 16 NNO 1022,5 8 34 0,0
24.03.2017 12:00:00 8,4 6,5 9,8 9,4 7,5 6,1 14 8 22 12 NO 1022,5 8 7 0,0
24.03.2017 11:00:00 7,7 6,6 8,5 8,0 7,5 6,1 11 6 21 11 NO 1022,8 7 0 0,0
24.03.2017 10:00:00 6,8 5,6 7,0 7,3 7,5 6,1 14 8 25 14 NO 1022,4 7 0 0,0
24.03.2017 09:00:00 6,4 5,7 6,3 6,8 7,6 6,1 14 7 23 12 ONO 1022,4 5 0 0,0
24.03.2017 08:00:00 6,4 5,8 6,1 6,6 7,7 6,1 13 7 21 12 ONO 1021,8 4,3 0 0,0
24.03.2017 07:00:00 6,2 5,7 5,7 6,5 7,8 6,1 9 5 20 11 ONO 1021,9 3,6 0 0,0
24.03.2017 06:00:00 6,3 5,9 5,6 6,7 7,9 6,1 10 5 21 12 ONO 1021,1 3,5 0 0,0
24.03.2017 05:00:00 6,7 6,2 6,0 6,6 8,1 6,1 10 5 16 9 NO 1020,5 3,4 0 0,0
24.03.2017 04:00:00 6,8 6,2 5,9 6,3 8,3 6,1 9 5 16 9 ONO 1019,9 3,8 0 0,0
24.03.2017 03:00:00 6,4 5,9 4,4 6,3 8,5 6,1 8 5 15 8 NNO 1019,4 3,4 0 0,0
24.03.2017 02:00:00 6,7 6,1 4,7 6,6 8,8 6,1 10 5 16 9 NNO 1018,4 3,8 0 0,0
24.03.2017 01:00:00 6,8 6,1 4,8 7,1 9,0 6,0 7 4 19 10 N 1017,1 4,3 0 0,0
24.03.2017 00:00:00 6,5 5,7 4,6 7,7 9,3 6,0 12 6 16 9 NO 1017,2 4,1 0 0,0
23.03.2017 23:00:00 7,7 6,5 5,7 8,4 9,5 6,0 8 5 19 10 NNO 1016,6 6 0 0,0
23.03.2017 22:00:00 8,7 6,9 7,5 9,0 9,7 6,0 9 5 21 11 NO 1015,9 8 0 0,0
23.03.2017 21:00:00 9,4 7,3 7,4 9,9 9,8 6,0 9 5 22 12 NNO 1014,9 9 0 0,0
23.03.2017 20:00:00 10,9 8,0 9,0 11,2 9,8 6,0 13 7 26 14 NO 1013,4 12 7 0,0
23.03.2017 19:00:00 13,6 7,9 12,4 12,6 9,7 6,0 14 8 31 17 ONO 1011,8 25 60 0,0
23.03.2017 18:00:00 14,5 8,3 14,4 13,7 9,4 6,0 16 9 34 18 NO 1011,1 25 60 0,0
23.03.2017 17:00:00 15,2 8,5 16,5 14,6 9,0 6,0 18 10 31 17 ONO 1010,8 22 60 0,0
23.03.2017 16:00:00 15,2 7,5 17,3 14,8 8,5 6,0 17 9 32 18 ONO 1011,0 24 60 0,0
23.03.2017 15:00:00 14,9 8,4 17,4 14,5 8,0 6,0 16 9 26 14 NO 1011,4 30 60 0,0
23.03.2017 14:00:00 13,6 8,0 16,3 14,0 7,5 6,0 17 9 29 16 ONO 1011,9 23 60 0,0
23.03.2017 13:00:00 12,6 7,6 15,5 13,1 7,1 6,0 14 7 21 11 ONO 1012,5 17 60 0,0
23.03.2017 12:00:00 10,9 6,2 13,0 11,5 6,8 6,0 13 7 19 10 ONO 1013,0 19 60 0,0
23.03.2017 11:00:00 10,5 6,6 12,4 9,4 6,6 6,0 8 4 21 11 O 1013,3 25 60 0,0
23.03.2017 10:00:00 8,3 4,8 9,3 7,3 6,6 6,0 16 8 20 11 O 1014,0 13 60 0,0
23.03.2017 09:00:00 5,6 4,6 6,1 5,6 6,7 6,0 7 4 10 6 O 1015,1 11 54 0,0
23.03.2017 08:00:00 4,1 3,7 2,5 5,6 6,7 6,0 7 4 13 7 ZO 1015,6 10 0 0,0
23.03.2017 07:00:00 4,7 4,5 4,4 5,9 6,8 6,0 10 5 14 7 Z 1015,4 7 0 0,0
23.03.2017 06:00:00 4,8 4,8 4,6 6,0 6,8 6,0 9 5 19 11 ZW 1015,3 1,2 0 0,0
23.03.2017 05:00:00 5,1 5,1 4,8 6,1 6,9 6,0 9 5 12 7 Z 1014,9 1,7 0 0,1
23.03.2017 04:00:00 5,0 5,0 4,8 6,2 7,0 5,9 10 5 18 10 ZW 1014,9 1,3 0 0,0
23.03.2017 03:00:00 5,3 5,3 5,1 6,4 7,0 5,9 3 2 17 9 W 1014,6 0,6 0 0,0
23.03.2017 02:00:00 5,3 5,3 5,2 6,6 7,1 5,9 10 5 15 8 ZZW 1014,4 0,3 0 0,0
23.03.2017 01:00:00 - - - - - - - - - - - - - - -

tt = temperatuur
td = dauwpunt
tt 5cm = temperatuur 5cm
tt -5cm = temperatuur -5cm
tt -20cm = temperatuur -20cm
tt -100cm = temperatuur -100cm
ff = windsnelheid
fx = windstoten
dd = windrichting
ppp = luchtdruk
vv = zicht
sd = Zonneschijnduur
rr = neerslag

Weerstations in de omgeving